Regional Weather Roundup
Issued by NWS Mt. Holly, NJ

Home | Current Version | Previous Version | Text Only | Print | Product List | Glossary On
Versions: 1 2 3 4 5 6 7 8 9 10 11 12 13 14 15 16 17 18 19 20 21 22 23 24 25 26 27
000
ASUS41 KPHI 181110
RWRPHI

REGIONAL WEATHER ROUNDUP
NATIONAL WEATHER SERVICE MOUNT HOLLY NJ
700 AM EDT FRI APR 18 2014

NOTE:  "FAIR" INDICATES FEW OR NO CLOUDS BELOW 12,000 FEET WITH NO
SIGNIFICANT WEATHER AND/OR OBSTRUCTIONS TO VISIBILITY.

 * = STATION DOES NOT REPORT PRECIPITATION (E.G. RAIN, SNOW, ETC.)
        OR FOG.

NJZ015>026-181200-
SOUTHERN NEW JERSEY

CITY           SKY/WX    TMP DP  RH WIND       PRES   REMARKS
POMONA         CLOUDY    39  32  76 NE6       30.52R WCI  35
RIO GRANDE*    CLOUDY    39  30  70 NE5       30.52R
MILLVILLE      CLOUDY    39  32  76 E6        30.53R WCI  35
WRIGHTSTOWN    CLOUDY    38  30  73 NE7       30.50R WCI  33
MOUNT HOLLY    CLOUDY    38  29  70 E7        30.53R WCI  33
TRENTON        CLOUDY    38  29  70 NE7       30.51R WCI  33

$$
NJZ001>014-181200-
NORTHERN NEW JERSEY

CITY           SKY/WX    TMP DP  RH WIND       PRES   REMARKS
SUSSEX         CLOUDY    32  28  85 CALM      30.51R
ANDOVER*         N/A     31  29  92 CALM      30.51R
NEWARK         MOCLDY    37  27  67 NE10      30.54R WCI  30
TETERBORO      PTCLDY    36  25  64 NE5       30.54R WCI  32
CALDWELL       CLOUDY    34  26  72 NE7       30.54R WCI  28
SOMERVILLE     CLOUDY    33  30  88 CALM      30.51R
ALLAIRE*       CLOUDY    37  27  65 NE8       30.52R WCI  31
TOMS RIVER*    CLOUDY    39  28  65 NE6       30.52R WCI  35

$$
PAZ043-044-047-054-055-060>062-066>071-181200-
EASTERN PENNSYLVANIA

CITY           SKY/WX    TMP DP  RH WIND       PRES   REMARKS
PHILADELPHIA   CLOUDY    39  27  62 E7        30.54R WCI  34
NORTH PHILA    CLOUDY    40  28  62 NE5       30.54R
BLUE BELL      CLOUDY    37  30  75 CALM      30.52R
DOYLESTOWN     CLOUDY    35  29  78 E3        30.51R
QUAKERTOWN*    CLOUDY    36  28  75 CALM      30.52R
POTTSTOWN      CLOUDY    37  29  72 CALM      30.54R
LANCASTER      CLOUDY    35  27  72 SE3       30.51R
COATESVILLE    CLOUDY    36  28  75 E3        30.51R
READING        CLOUDY    37  27  67 E5        30.52R WCI  33
ALLENTOWN      CLOUDY    34  29  82 CALM      30.52R
MOUNT POCONO   CLOUDY    30  25  81 SE8       30.42S WCI  22
HAZLETON       MOCLDY    32  27  80 SE3       30.47R
WILKES BARRE   CLOUDY    32  26  78 S7        30.47S WCI  26

$$
DEZALL-MDZ008-012-015-019-020-181200-
DELAWARE AND EASTERN MARYLAND

CITY           SKY/WX    TMP DP  RH WIND       PRES   REMARKS
WILMINGTON     CLOUDY    39  29  67 SE5       30.54R
DOVER          CLOUDY    39  34  81 NE6       30.52R WCI  35
GEORGETOWN     CLOUDY    42  33  70 NE6       30.52R
EASTON         CLOUDY    41  34  75 E3        30.55R
PATUXENT       MOCLDY    39  32  76 NE7       30.49F WCI  34
OCEAN CITY     CLOUDY    42  34  73 N12       30.50R
WALLOPS ISLAND CLOUDY    39  34  82 N7        30.49R WCI  34
CAMBRIDGE      PTCLDY    41  32  70 E5        30.49F
SALISBURY      CLOUDY    40  33  76 NE5       30.50R

$$
PAZ001-021-NYZ056-072-MDZ011-DCZ001-181200-
OTHER NEARBY LOCATIONS

CITY           SKY/WX    TMP DP  RH WIND       PRES   REMARKS
HARRISBURG     CLOUDY    38  28  67 SE5       30.52R WCI  34
STATE COLLEGE  CLEAR     36  28  75 SW5       30.44R WCI  32
WILLIAMSPORT   PTCLDY    36  26  67 NE3       30.47R
BINGHAMTON     CLEAR     31  26  82 SE10      30.40S WCI  22
NEW YORK CITY  CLOUDY    36  26  67 E8        30.55R WCI  30
BALTIMORE      CLOUDY    38  29  70 CALM      30.50F
WASHINGTON DC  MOCLDY    40  30  67 E6        30.51F

$$



USA.gov is the U.S. government's official web portal to all federal, state and local government web resources and services.